Theta_e
342 340 337 336 334 327 323 323 323 320 319 316 316 314 314 312 314 313 313 311 311 311
338 335 334 330 328 325 323 320 318 317 316 316 316 314 312 312 312 311 310 310 310 310
336 334 329 327 325 322 319 317 315 314 314 313 312 312 308 307 310 307 307 308 308 308
329 326 325 322 320 318 316 315 314 313 311 309 307 306 305 305 307 306 306 306 307 304
322 322 320 319 315 315 313 313 311 310 307 304 302 301 301 302 303 304 303 303 302 300
318 318 316 316 315 313 311 309 304 303 301 299 298 298 298 300 303 303 302 301 299 298
316 316 314 313 312 311 306 301 298 298 298 298 296 296 298 300 300 301 300 301 299 298
313 313 312 311 310 303 300 298 298 296 294 294 295 296 295 296 298 298 297 297 299 297
313 312 311 309 303 301 299 295 294 293 292 291 295 297 298 296 296 298 296 295 295 294
311 309 309 305 302 299 294 292 291 291 291 290 292 297 298 299 295 296 294 292 291 292
308 306 305 304 301 297 294 292 291 290 289 289 293 295 295 296 292 296 296 293 290 288
307 305 305 302 300 297 294 293 292 290 289 287 288 294 294 291 292 293 291 291 292 289
306 304 301 300 299 298 297 295 294 291 289 292 287 293 293 290 288 288 290 291 290 294
303 301 300 299 299 298 297 295 293 290 288 287 288 290 293 293 289 287 289 289 289 290
Wind_Speed
11 9 9 9 9 8 8 7 7 8 9 8 7 6 6 4 4 5 4 6 4 3
10 11 11 12 11 9 10 9 9 9 9 7 8 7 6 4 6 6 5 4 4 3
12 13 14 13 13 11 11 11 11 9 9 9 8 6 7 6 5 6 2 2 5 5
13 15 14 13 12 13 12 11 11 10 10 10 8 7 7 6 6 5 5 6 8 9
15 15 14 14 14 13 13 11 12 11 11 9 8 7 6 6 5 5 7 7 10 8
15 14 15 15 14 12 12 12 11 11 11 8 6 6 6 5 5 8 8 8 8 5
17 17 16 15 13 12 12 12 12 10 9 8 8 7 6 6 6 7 7 6 6 6
16 17 19 15 14 12 13 11 10 11 10 7 6 4 4 5 6 7 7 8 5 7
17 18 17 15 14 13 12 12 12 10 8 6 4 6 6 6 5 7 7 6 5 5
17 18 15 15 14 13 13 11 10 7 7 8 7 12 10 9 5 6 5 6 5 4
17 17 14 14 14 13 10 11 8 7 7 8 8 14 13 12 7 7 4 6 5 3
16 17 15 14 12 11 11 9 7 6 7 9 8 14 13 7 6 6 6 5 5 3
15 15 15 14 12 7 9 10 7 7 6 12 8 13 10 6 4 6 3 4 3 3
13 13 12 10 10 10 10 9 7 6 6 7 8 9 12 10 6 4 4 4 3 3
Wind_Direction
135 140 139 136 121 113 113 108 111 100 94 94 98 100 83 75 81 74 65 63 53 64
124 125 126 110 111 117 118 107 99 92 89 88 84 75 72 70 61 52 41 44 57 51
138 129 115 121 121 119 108 111 105 99 87 77 68 72 69 58 54 64 23 20 48 45
110 111 117 115 117 115 115 109 102 95 86 77 65 50 59 64 49 49 40 24 44 60
117 118 118 122 116 111 109 104 97 92 83 76 68 58 64 62 46 49 54 56 62 53
112 118 117 109 105 105 105 95 82 81 77 71 61 60 53 54 51 66 61 69 69 54
124 120 113 108 107 104 98 91 86 81 86 71 57 44 38 41 51 66 63 70 68 48
116 110 109 108 101 100 90 90 88 81 68 65 69 64 68 56 60 73 63 50 70 45
124 98 102 103 102 98 91 81 78 73 76 70 70 56 76 86 64 64 66 63 49 53
107 101 107 108 108 98 94 94 82 71 66 57 42 42 61 90 74 84 86 74 57 32
106 113 115 108 103 101 99 93 93 80 61 64 49 50 50 52 58 101 105 76 70 47
120 119 110 101 108 109 113 105 85 78 70 66 48 51 50 52 73 85 55 68 36 75
101 106 111 115 124 116 108 105 98 78 58 64 48 39 44 60 87 71 28 31 16 42
101 108 113 121 113 114 109 104 94 79 53 55 50 40 39 52 70 77 55 25 353 343